Pompano Beach, FL

2:16 AM EDT on July 21, 2017 (GMT -0400)
Pompano Beach

Weather History for KPMP - March, 2014

Change the Weather History Date:

Wednesday, March 5, 2014

  Actual Average Record
Temperature  
Mean Temperature 78 °F -  
Max Temperature 82 °F 80 °F 90 °F (1964)
Min Temperature 73 °F 63 °F 42 °F (1971)
Cooling Degree Days 12    
Growing Degree Days 28 (Base 50)    
Moisture  
Dew Point 66 °F    
Average Humidity 70    
Maximum Humidity 85    
Minimum Humidity 58    
Precipitation  
Precipitation 0.00 in - - ()
Sea Level Pressure  
Sea Level Pressure 30.00 in    
Wind  
Wind Speed 7 mph (South)    
Max Wind Speed 16 mph    
Max Gust Speed 20 mph    
Visibility 10 miles    
Events      
Averages and records for this station are not official NWS values.
T = Trace of Precipitation, MM = Missing Value Source: NWS Daily Summary

Daily Weather History Graph

Daily Weather History Graph

Search for Another Location

Airport or City:

Trip Planner

Search our weather history database for the weather conditions in past years. The results will help you decide how hot, cold, wet, or windy it might be!

Date:

Astronomy

Mar. 05, 2014 Rise Set
Actual Time 6:40 AM EST 6:24 PM EST
Civil Twilight 6:16 AM EST 6:47 PM EST
Nautical Twilight 5:50 AM EST 7:14 PM EST
Astronomical Twilight 5:23 AM EST 7:40 PM EST
Moon 9:33 AM EST (3/5) 11:00 PM EST (3/5)
Length of Visible Light 12h 30m
Length of Day
11h 44m
Waxing Crescent, 23% of the Moon is Illuminated
Mar 5
Waxing Crescent
Mar 8
First Quarter
Mar 16
Full
Mar 23
Last Quarter
Mar 30
New

Hourly Weather History & Observations

Time (EST) Temp. Heat Index Dew Point Humidity Pressure Visibility Wind Dir Wind Speed Gust Speed Precip Events Conditions
12:53 AM 75.0 °F - 64.9 °F 71% 30.03 in 10.0 mi SSE 5.8 mph - N/A   Clear
1:53 AM 75.0 °F - 64.9 °F 71% 30.00 in 10.0 mi SE 5.8 mph - N/A   Clear
2:53 AM 73.9 °F - 64.0 °F 71% 29.98 in 10.0 mi SE 9.2 mph - N/A   Clear
3:53 AM 75.0 °F - 63.0 °F 66% 29.96 in 10.0 mi SSE 9.2 mph - N/A   Partly Cloudy
4:53 AM 75.0 °F - 64.0 °F 69% 29.99 in 10.0 mi South 8.1 mph - N/A   Overcast
5:53 AM 75.9 °F - 64.9 °F 69% 30.00 in 10.0 mi South 6.9 mph - N/A   Scattered Clouds
6:53 AM 75.0 °F - 66.0 °F 73% 30.01 in 10.0 mi SSW 4.6 mph - N/A   Overcast
7:02 AM 75.2 °F - 66.2 °F 73% 30.01 in 10.0 mi SW 3.5 mph - N/A   Mostly Cloudy
7:53 AM 75.0 °F - 66.0 °F 73% 30.04 in 10.0 mi Calm Calm - N/A   Partly Cloudy
8:53 AM 78.1 °F - 66.0 °F 66% 30.05 in 10.0 mi South 4.6 mph - N/A   Scattered Clouds
9:53 AM 82.0 °F 84.5 °F 66.9 °F 60% 30.05 in 10.0 mi SSE 10.4 mph - N/A   Scattered Clouds
10:53 AM 82.0 °F 84.1 °F 66.0 °F 58% 30.04 in 10.0 mi SE 12.7 mph - N/A   Partly Cloudy
11:53 AM 82.0 °F 84.1 °F 66.0 °F 58% 30.03 in 10.0 mi SSE 12.7 mph 17.3 mph 0.00 in   Scattered Clouds
12:53 PM 82.9 °F 85.4 °F 66.9 °F 58% 30.00 in 10.0 mi SSE 11.5 mph 19.6 mph N/A   Clear
1:53 PM 82.9 °F 85.8 °F 68.0 °F 60% 29.97 in 10.0 mi SSE 16.1 mph - N/A   Mostly Cloudy
2:53 PM 81.0 °F 84.1 °F 69.1 °F 67% 29.95 in 10.0 mi SSE 12.7 mph - N/A   Mostly Cloudy
3:53 PM 79.0 °F - 69.1 °F 72% 29.95 in 10.0 mi SE 11.5 mph - N/A   Overcast
4:53 PM 78.1 °F - 69.1 °F 74% 29.96 in 10.0 mi South 12.7 mph - 0.00 in   Mostly Cloudy
5:53 PM 75.9 °F - 63.0 °F 64% 29.95 in 10.0 mi South 6.9 mph - N/A   Mostly Cloudy
6:53 PM 77.0 °F - 66.9 °F 71% 29.96 in 10.0 mi SSE 11.5 mph - N/A   Mostly Cloudy
7:53 PM 75.9 °F - 68.0 °F 76% 29.99 in 10.0 mi WNW 5.8 mph - N/A   Scattered Clouds
8:53 PM 73.9 °F - 66.0 °F 76% 30.00 in 10.0 mi Calm Calm - N/A   Clear
9:53 PM 75.0 °F - 69.1 °F 82% 30.00 in 10.0 mi South 3.5 mph - N/A   Clear
10:53 PM 73.9 °F - 69.1 °F 85% 30.01 in 10.0 mi West 3.5 mph - N/A   Partly Cloudy
11:53 PM 73.9 °F - 69.1 °F 85% 30.01 in 10.0 mi SW 4.6 mph - N/A   Clear